| time (UTC) | temp F | wind direction | speed MPH | gust MPH | rain 1hr in | rain 24hr in | rain mn in | humidity % | barometer mb |
| 20260831024518 | 64 | 250 | 2.0 | 11.0 | 0.00 | 0.02 | 0.02 | 91 | 1012.5 |
| 20260831024030 | 65 | 240 | 2.0 | 8.0 | 0.00 | 0.02 | 0.02 | 91 | 1012.5 |
| 20260831023518 | 65 | 231 | 2.0 | 8.0 | 0.00 | 0.02 | 0.02 | 91 | 1012.8 |
| 20260831023019 | 65 | 269 | 2.0 | 8.0 | 0.00 | 0.02 | 0.02 | 91 | 1012.8 |
| 20260831022519 | 65 | 205 | 2.0 | 8.0 | 0.01 | 0.02 | 0.02 | 91 | 1013.0 |
| 20260831022019 | 64 | 215 | 1.0 | 7.0 | 0.01 | 0.02 | 0.02 | 91 | 1013.1 |
| 20260831021519 | 64 | 239 | 2.0 | 7.0 | 0.01 | 0.02 | 0.02 | 91 | 1013.0 |
| 20260831021018 | 64 | 349 | 2.0 | 8.0 | 0.01 | 0.02 | 0.02 | 91 | 1013.1 |
| 20260831020518 | 64 | 230 | 2.0 | 8.0 | 0.01 | 0.02 | 0.02 | 91 | 1013.2 |
| 20260831020018 | 64 | 124 | 1.0 | 8.0 | 0.02 | 0.02 | 0.02 | 91 | 1013.2 |
| 20260831015531 | 64 | 82 | 1.0 | 8.0 | 0.02 | 0.02 | 0.02 | 91 | 1013.1 |
| 20260831015018 | 64 | 246 | 2.0 | 7.0 | 0.02 | 0.02 | 0.02 | 91 | 1013.4 |
| 20260831014518 | 64 | 307 | 2.0 | 6.0 | 0.02 | 0.02 | 0.02 | 91 | 1013.2 |
| 20260831014019 | 64 | 252 | 1.0 | 6.0 | 0.02 | 0.02 | 0.02 | 91 | 1013.3 |
| 20260831013519 | 64 | 314 | 1.0 | 3.0 | 0.02 | 0.02 | 0.02 | 91 | 1013.4 |
| 20260831013018 | 64 | 71 | 1.0 | 6.0 | 0.02 | 0.02 | 0.02 | 91 | 1013.5 |
| 20260831012518 | 64 | 217 | 2.0 | 6.0 | 0.01 | 0.01 | 0.01 | 91 | 1013.5 |
| 20260831012023 | 65 | 246 | 1.0 | 9.0 | 0.01 | 0.01 | 0.01 | 91 | 1013.7 |
| 20260831011519 | 65 | 227 | 2.0 | 9.0 | 0.01 | 0.01 | 0.01 | 91 | 1013.5 |
| 20260831011019 | 65 | 278 | 2.0 | 7.0 | 0.01 | 0.01 | 0.01 | 90 | 1013.4 |
| 20260831010529 | 65 | 294 | 2.0 | 7.0 | 0.01 | 0.01 | 0.01 | 90 | 1013.4 |
| 20260831010018 | 65 | 231 | 1.0 | 10.0 | 0.00 | 0.00 | 0.00 | 90 | 1013.3 |
| 20260831005518 | 66 | 246 | 2.0 | 9.0 | 0.00 | 0.00 | 0.00 | 89 | 1013.5 |
| 20260831005018 | 66 | 168 | 1.0 | 9.0 | 0.00 | 0.00 | 0.00 | 88 | 1013.5 |
| 20260831004518 | 66 | 183 | 2.0 | 9.0 | 0.00 | 0.00 | 0.00 | 88 | 1013.6 |
| 20260831004018 | 66 | 323 | 2.0 | 8.0 | 0.00 | 0.00 | 0.00 | 87 | 1013.8 |
| 20260831003531 | 67 | 83 | 3.0 | 7.0 | 0.00 | 0.00 | 0.00 | 87 | 1013.8 |
| 20260831003019 | 67 | 259 | 2.0 | 12.0 | 0.00 | 0.00 | 0.00 | 87 | 1013.8 |
| 20260831002518 | 67 | 257 | 4.0 | 12.0 | 0.00 | 0.00 | 0.00 | 87 | 1013.9 |
| 20260831002019 | 67 | 242 | 4.0 | 11.0 | 0.00 | 0.00 | 0.00 | 87 | 1014.0 |
| 20260831001519 | 67 | 256 | 2.0 | 11.0 | 0.00 | 0.00 | 0.00 | 87 | 1013.9 |
| 20260831001019 | 67 | 279 | 4.0 | 10.0 | 0.00 | 0.00 | 0.00 | 87 | 1014.0 |
| 20260831000523 | 67 | 243 | 4.0 | 11.0 | 0.00 | 0.00 | 0.00 | 87 | 1014.1 |
| 20260831000019 | 67 | 207 | 3.0 | 11.0 | 0.00 | 0.00 | 0.00 | 86 | 1014.0 |
| 20260830235518 | 67 | 214 | 4.0 | 11.0 | 0.00 | 0.00 | 0.00 | 86 | 1014.1 |
| 20260830235018 | 67 | 269 | 4.0 | 11.0 | 0.00 | 0.00 | 0.00 | 86 | 1014.0 |
| 20260830234518 | 67 | 94 | 3.0 | 11.0 | 0.00 | 0.00 | 0.00 | 86 | 1014.1 |
| 20260830234019 | 67 | 310 | 4.0 | 8.0 | 0.00 | 0.00 | 0.00 | 86 | 1014.1 |
| 20260830233530 | 67 | 257 | 3.0 | 10.0 | 0.00 | 0.00 | 0.00 | 86 | 1014.1 |
| 20260830233018 | 67 | 323 | 3.0 | 10.0 | 0.00 | 0.00 | 0.00 | 86 | 1014.0 |
| 20260830232519 | 67 | 332 | 3.0 | 10.0 | 0.00 | 0.00 | 0.00 | 85 | 1014.0 |
| 20260830232019 | 67 | 212 | 3.0 | 12.0 | 0.00 | 0.00 | 0.00 | 85 | 1014.1 |
| 20260830231520 | 67 | 340 | 2.0 | 12.0 | 0.00 | 0.00 | 0.00 | 85 | 1014.2 |
| 20260830231018 | 67 | 359 | 2.0 | 8.0 | 0.00 | 0.00 | 0.00 | 85 | 1014.3 |
| 20260830230518 | 67 | 250 | 3.0 | 11.0 | 0.00 | 0.00 | 0.00 | 85 | 1014.3 |
| 20260830230019 | 67 | 250 | 3.0 | 11.0 | 0.00 | 0.00 | 0.00 | 85 | 1014.1 |
| 20260830225529 | 67 | 8 | 2.0 | 7.0 | 0.00 | 0.00 | 0.00 | 85 | 1014.2 |
| 20260830225029 | 67 | 260 | 2.0 | 10.0 | 0.00 | 0.00 | 0.00 | 85 | 1014.0 |
| 20260830224519 | 67 | 312 | 3.0 | 10.0 | 0.00 | 0.00 | 0.00 | 86 | 1014.1 |
| 20260830224029 | 67 | 60 | 3.0 | 11.0 | 0.00 | 0.00 | 0.00 | 86 | 1014.1 |
| 20260830223519 | 67 | 217 | 3.0 | 11.0 | 0.00 | 0.00 | 0.00 | 86 | 1014.1 |
| 20260830223018 | 68 | 245 | 3.0 | 13.0 | 0.00 | 0.00 | 0.00 | 86 | 1014.2 |
| 20260830222519 | 68 | 162 | 3.0 | 13.0 | 0.00 | 0.00 | 0.00 | 86 | 1014.2 |
| 20260830222019 | 68 | 212 | 3.0 | 8.0 | 0.00 | 0.00 | 0.00 | 86 | 1014.2 |
| 20260830221519 | 68 | 112 | 2.0 | 7.0 | 0.00 | 0.00 | 0.00 | 86 | 1014.2 |
| 20260830221018 | 68 | 181 | 3.0 | 10.0 | 0.00 | 0.00 | 0.00 | 86 | 1014.3 |
| 20260830220518 | 68 | 237 | 4.0 | 10.0 | 0.00 | 0.00 | 0.00 | 86 | 1014.2 |
| 20260830220030 | 68 | 222 | 2.0 | 9.0 | 0.00 | 0.00 | 0.00 | 86 | 1014.1 |
| 20260830215519 | 68 | 347 | 3.0 | 9.0 | 0.00 | 0.00 | 0.00 | 86 | 1014.1 |
| 20260830215019 | 68 | 230 | 2.0 | 8.0 | 0.00 | 0.00 | 0.00 | 86 | 1014.1 |
| 20260830214518 | 68 | 255 | 2.0 | 10.0 | 0.00 | 0.00 | 0.00 | 86 | 1014.1 |
| 20260830214019 | 68 | 330 | 2.0 | 10.0 | 0.00 | 0.00 | 0.00 | 85 | 1014.1 |
| 20260830213519 | 68 | 269 | 2.0 | 8.0 | 0.00 | 0.00 | 0.00 | 85 | 1014.2 |
| 20260830213030 | 69 | 151 | 2.0 | 13.0 | 0.00 | 0.00 | 0.00 | 85 | 1014.2 |
| 20260830212519 | 69 | 301 | 2.0 | 13.0 | 0.00 | 0.00 | 0.00 | 85 | 1014.4 |
| 20260830212024 | 69 | 216 | 3.0 | 8.0 | 0.00 | 0.00 | 0.00 | 85 | 1014.3 |
| 20260830211519 | 69 | 256 | 3.0 | 7.0 | 0.00 | 0.00 | 0.00 | 84 | 1014.2 |
| 20260830211019 | 69 | 257 | 3.0 | 11.0 | 0.00 | 0.00 | 0.00 | 84 | 1014.2 |
| 20260830210519 | 69 | 248 | 3.0 | 11.0 | 0.00 | 0.00 | 0.00 | 83 | 1014.3 |
| 20260830210019 | 69 | 293 | 3.0 | 8.0 | 0.00 | 0.00 | 0.00 | 83 | 1014.4 |
| 20260830205519 | 70 | 215 | 1.0 | 8.0 | 0.00 | 0.00 | 0.00 | 83 | 1014.3 |
| 20260830205026 | 70 | 231 | 3.0 | 10.0 | 0.00 | 0.00 | 0.00 | 82 | 1014.2 |
| 20260830204527 | 70 | 226 | 2.0 | 10.0 | 0.00 | 0.00 | 0.00 | 82 | 1014.4 |
| 20260830204025 | 70 | 284 | 2.0 | 9.0 | 0.00 | 0.00 | 0.00 | 82 | 1014.4 |
| 20260830203536 | 70 | 246 | 2.0 | 8.0 | 0.00 | 0.00 | 0.00 | 82 | 1014.6 |
| 20260830203026 | 70 | 79 | 3.0 | 11.0 | 0.00 | 0.00 | 0.00 | 81 | 1014.7 |
| 20260830202525 | 70 | 262 | 3.0 | 11.0 | 0.00 | 0.00 | 0.00 | 82 | 1014.6 |
| 20260830202030 | 70 | 347 | 2.0 | 10.0 | 0.00 | 0.00 | 0.00 | 82 | 1014.7 |
| 20260830201524 | 70 | 283 | 3.0 | 10.0 | 0.00 | 0.00 | 0.00 | 82 | 1014.8 |
| 20260830201024 | 70 | 207 | 4.0 | 10.0 | 0.00 | 0.00 | 0.00 | 81 | 1014.9 |
| 20260830200523 | 70 | 84 | 2.0 | 11.0 | 0.00 | 0.00 | 0.00 | 82 | 1015.2 |
| 20260830200023 | 70 | 229 | 3.0 | 11.0 | 0.00 | 0.00 | 0.00 | 81 | 1015.2 |
| 20260830195534 | 71 | 289 | 3.0 | 11.0 | 0.00 | 0.00 | 0.00 | 80 | 1015.1 |
| 20260830195023 | 71 | 35 | 4.0 | 15.0 | 0.00 | 0.00 | 0.00 | 79 | 1015.1 |
| 20260830194523 | 71 | 223 | 4.0 | 15.0 | 0.00 | 0.00 | 0.00 | 79 | 1015.0 |
| 20260830194035 | 71 | 307 | 1.0 | 10.0 | 0.00 | 0.00 | 0.00 | 80 | 1014.9 |
| 20260830193523 | 71 | 217 | 3.0 | 11.0 | 0.00 | 0.00 | 0.00 | 80 | 1015.1 |
| 20260830193034 | 71 | 250 | 5.0 | 11.0 | 0.00 | 0.00 | 0.00 | 79 | 1015.1 |
| 20260830192523 | 71 | 172 | 3.0 | 13.0 | 0.00 | 0.00 | 0.00 | 78 | 1015.2 |
| 20260830192023 | 72 | 9 | 4.0 | 14.0 | 0.00 | 0.00 | 0.00 | 77 | 1015.1 |
| 20260830191523 | 72 | 293 | 3.0 | 14.0 | 0.00 | 0.00 | 0.00 | 76 | 1015.1 |
| 20260830191023 | 73 | 127 | 4.0 | 14.0 | 0.00 | 0.00 | 0.00 | 75 | 1015.2 |
| 20260830190523 | 73 | 143 | 5.0 | 14.0 | 0.00 | 0.00 | 0.00 | 74 | 1015.1 |
| 20260830190024 | 73 | 229 | 3.0 | 16.0 | 0.00 | 0.00 | 0.00 | 75 | 1015.2 |
| 20260830185522 | 73 | 187 | 5.0 | 16.0 | 0.00 | 0.00 | 0.00 | 74 | 1015.1 |
| 20260830185021 | 73 | 311 | 4.0 | 12.0 | 0.00 | 0.00 | 0.00 | 73 | 1015.1 |
| 20260830184521 | 73 | 262 | 5.0 | 15.0 | 0.00 | 0.00 | 0.00 | 73 | 1015.2 |
| 20260830184022 | 72 | 197 | 7.0 | 15.0 | 0.00 | 0.00 | 0.00 | 73 | 1015.1 |
| 20260830183521 | 73 | 194 | 6.0 | 12.0 | 0.00 | 0.00 | 0.00 | 72 | 1015.3 |
| 20260830183021 | 73 | 283 | 3.0 | 11.0 | 0.00 | 0.00 | 0.00 | 73 | 1015.4 |
| 20260830182522 | 73 | 29 | 4.0 | 20.0 | 0.00 | 0.00 | 0.00 | 72 | 1015.3 |
| 20260830182022 | 73 | 248 | 4.0 | 20.0 | 0.00 | 0.00 | 0.00 | 72 | 1015.4 |
| 20260830181522 | 73 | 313 | 6.0 | 13.0 | 0.00 | 0.00 | 0.00 | 71 | 1015.5 |
| 20260830181021 | 72 | 165 | 5.0 | 15.0 | 0.00 | 0.00 | 0.00 | 73 | 1015.4 |
| 20260830180521 | 72 | 276 | 5.0 | 13.0 | 0.00 | 0.00 | 0.00 | 71 | 1015.6 |
| 20260830180021 | 72 | 187 | 4.0 | 13.0 | 0.00 | 0.00 | 0.00 | 73 | 1015.6 |
| 20260830175521 | 72 | 258 | 7.0 | 15.0 | 0.00 | 0.00 | 0.00 | 71 | 1015.7 |
| 20260830175022 | 72 | 290 | 4.0 | 18.0 | 0.00 | 0.00 | 0.00 | 73 | 1015.7 |
| 20260830174521 | 72 | 147 | 7.0 | 18.0 | 0.00 | 0.00 | 0.00 | 72 | 1015.6 |
| 20260830174021 | 73 | 245 | 5.0 | 16.0 | 0.00 | 0.00 | 0.00 | 73 | 1015.7 |
| 20260830173521 | 73 | 275 | 4.0 | 10.0 | 0.00 | 0.00 | 0.00 | 73 | 1015.7 |
| 20260830173022 | 73 | 240 | 4.0 | 13.0 | 0.00 | 0.00 | 0.00 | 74 | 1015.7 |
| 20260830172521 | 72 | 288 | 4.0 | 14.0 | 0.00 | 0.00 | 0.00 | 73 | 1015.7 |
| 20260830172021 | 72 | 236 | 5.0 | 14.0 | 0.00 | 0.00 | 0.00 | 73 | 1015.6 |
| 20260830171533 | 71 | 105 | 5.0 | 14.0 | 0.00 | 0.00 | 0.00 | 73 | 1015.7 |
| 20260830171022 | 72 | 318 | 6.0 | 14.0 | 0.00 | 0.00 | 0.00 | 74 | 1015.8 |
| 20260830170522 | 72 | 154 | 4.0 | 13.0 | 0.00 | 0.00 | 0.00 | 75 | 1015.8 |
| 20260830170032 | 72 | 285 | 5.0 | 13.0 | 0.00 | 0.00 | 0.00 | 72 | 1015.8 |
| 20260830165521 | 72 | 243 | 3.0 | 13.0 | 0.00 | 0.00 | 0.00 | 75 | 1016.0 |
| 20260830165022 | 72 | 188 | 3.0 | 14.0 | 0.00 | 0.00 | 0.00 | 75 | 1016.1 |
| 20260830164521 | 72 | 250 | 4.0 | 14.0 | 0.00 | 0.00 | 0.00 | 76 | 1016.1 |
| 20260830164021 | 71 | 276 | 4.0 | 14.0 | 0.00 | 0.00 | 0.00 | 75 | 1016.2 |
| 20260830163532 | 72 | 326 | 4.0 | 15.0 | 0.00 | 0.00 | 0.00 | 75 | 1016.1 |
| 20260830163021 | 71 | 233 | 6.0 | 15.0 | 0.00 | 0.00 | 0.00 | 75 | 1016.1 |
| 20260830162522 | 72 | 248 | 5.0 | 15.0 | 0.00 | 0.00 | 0.00 | 74 | 1016.2 |
| 20260830162027 | 72 | 183 | 3.0 | 13.0 | 0.00 | 0.00 | 0.00 | 75 | 1016.3 |
| 20260830161533 | 72 | 236 | 6.0 | 13.0 | 0.00 | 0.00 | 0.00 | 73 | 1016.5 |
| 20260830161032 | 72 | 210 | 5.0 | 12.0 | 0.00 | 0.00 | 0.00 | 72 | 1016.6 |
| 20260830160521 | 72 | 319 | 5.0 | 12.0 | 0.00 | 0.00 | 0.00 | 71 | 1016.7 |
| 20260830160022 | 72 | 218 | 3.0 | 11.0 | 0.00 | 0.00 | 0.00 | 72 | 1016.8 |
| 20260830155520 | 72 | 29 | 4.0 | 12.0 | 0.00 | 0.00 | 0.00 | 72 | 1017.0 |
| 20260830155020 | 72 | 258 | 4.0 | 14.0 | 0.00 | 0.00 | 0.00 | 74 | 1017.1 |
| 20260830154520 | 71 | 6 | 5.0 | 14.0 | 0.00 | 0.00 | 0.00 | 73 | 1017.2 |
| 20260830154020 | 72 | 229 | 3.0 | 13.0 | 0.00 | 0.00 | 0.00 | 73 | 1017.2 |
| 20260830153521 | 71 | 231 | 3.0 | 13.0 | 0.00 | 0.00 | 0.00 | 75 | 1017.4 |
| 20260830153019 | 71 | 230 | 3.0 | 14.0 | 0.00 | 0.00 | 0.00 | 75 | 1017.4 |
| 20260830152519 | 71 | 98 | 6.0 | 14.0 | 0.00 | 0.00 | 0.00 | 74 | 1017.5 |
| 20260830152019 | 71 | 225 | 5.0 | 13.0 | 0.00 | 0.00 | 0.00 | 73 | 1017.6 |
| 20260830151520 | 71 | 257 | 4.0 | 11.0 | 0.00 | 0.00 | 0.00 | 74 | 1017.6 |
| 20260830151030 | 71 | 233 | 4.0 | 10.0 | 0.00 | 0.00 | 0.00 | 73 | 1017.7 |
| 20260830150519 | 71 | 304 | 5.0 | 12.0 | 0.00 | 0.00 | 0.00 | 74 | 1017.9 |
| 20260830150019 | 71 | 148 | 4.0 | 12.0 | 0.00 | 0.00 | 0.00 | 73 | 1018.0 |
| 20260830145519 | 72 | 227 | 3.0 | 11.0 | 0.00 | 0.00 | 0.00 | 74 | 1018.1 |
| 20260830145019 | 71 | 129 | 3.0 | 11.0 | 0.00 | 0.00 | 0.00 | 75 | 1018.0 |
| 20260830144520 | 71 | 104 | 3.0 | 10.0 | 0.00 | 0.00 | 0.00 | 74 | 1018.2 |
| 20260830144019 | 71 | 260 | 3.0 | 10.0 | 0.00 | 0.00 | 0.00 | 74 | 1018.1 |
| 20260830143519 | 71 | 250 | 4.0 | 12.0 | 0.00 | 0.00 | 0.00 | 73 | 1018.2 |
| 20260830143020 | 71 | 356 | 4.0 | 12.0 | 0.00 | 0.00 | 0.00 | 73 | 1018.1 |
| 20260830142520 | 71 | 263 | 5.0 | 12.0 | 0.00 | 0.00 | 0.00 | 72 | 1018.2 |
| 20260830142019 | 71 | 349 | 1.0 | 10.0 | 0.00 | 0.00 | 0.00 | 74 | 1018.3 |
| 20260830141527 | 70 | 131 | 4.0 | 10.0 | 0.00 | 0.00 | 0.00 | 73 | 1018.3 |
| 20260830141008 | 70 | 221 | 3.0 | 10.0 | 0.00 | 0.00 | 0.00 | 74 | 1018.4 |
| 20260830140515 | 70 | 234 | 4.0 | 9.0 | 0.00 | 0.00 | 0.00 | 71 | 1018.3 |
| 20260830140008 | 71 | 310 | 3.0 | 9.0 | 0.00 | 0.00 | 0.00 | 70 | 1018.3 |
| 20260830135516 | 71 | 196 | 2.0 | 9.0 | 0.00 | 0.00 | 0.00 | 72 | 1018.3 |
| 20260830135009 | 70 | 246 | 4.0 | 9.0 | 0.00 | 0.00 | 0.00 | 70 | 1018.3 |
| 20260830134516 | 70 | 219 | 4.0 | 8.0 | 0.00 | 0.00 | 0.00 | 70 | 1018.4 |
| 20260830134027 | 70 | 214 | 3.0 | 8.0 | 0.00 | 0.00 | 0.00 | 71 | 1018.4 |
| 20260830133516 | 70 | 272 | 2.0 | 7.0 | 0.00 | 0.00 | 0.00 | 71 | 1018.4 |
| 20260830133008 | 70 | 293 | 3.0 | 9.0 | 0.00 | 0.00 | 0.00 | 73 | 1018.5 |
| 20260830132516 | 70 | 237 | 3.0 | 9.0 | 0.00 | 0.00 | 0.00 | 71 | 1018.5 |
| 20260830132008 | 70 | 278 | 1.0 | 6.0 | 0.00 | 0.00 | 0.00 | 74 | 1018.7 |
| 20260830131516 | 70 | 66 | 1.0 | 8.0 | 0.00 | 0.00 | 0.00 | 73 | 1018.7 |
| 20260830131031 | 70 | 234 | 3.0 | 8.0 | 0.00 | 0.00 | 0.00 | 72 | 1018.8 |
| 20260830130509 | 70 | 253 | 2.0 | 5.0 | 0.00 | 0.00 | 0.00 | 73 | 1018.9 |
| 20260830130016 | 70 | 246 | 1.0 | 5.0 | 0.00 | 0.00 | 0.00 | 73 | 1018.9 |
| 20260830125513 | 69 | 217 | 1.0 | 4.0 | 0.00 | 0.00 | 0.00 | 73 | 1018.8 |
| 20260830125027 | 69 | 318 | 1.0 | 8.0 | 0.00 | 0.00 | 0.00 | 71 | 1018.8 |
| 20260830124509 | 69 | 63 | 1.0 | 8.0 | 0.00 | 0.00 | 0.00 | 74 | 1018.8 |
| 20260830124028 | 69 | 345 | 1.0 | 6.0 | 0.00 | 0.00 | 0.00 | 77 | 1018.8 |
| 20260830123509 | 68 | 205 | 1.0 | 6.0 | 0.00 | 0.00 | 0.00 | 76 | 1019.0 |
| 20260830123015 | 68 | 230 | 1.0 | 3.0 | 0.00 | 0.00 | 0.00 | 75 | 1019.0 |
| 20260830122513 | 68 | 227 | 0.0 | 5.0 | 0.00 | 0.00 | 0.00 | 75 | 1019.0 |
| 20260830122016 | 68 | 223 | 0.0 | 6.0 | 0.00 | 0.00 | 0.00 | 77 | 1019.0 |
| 20260830121510 | 68 | 77 | 1.0 | 6.0 | 0.00 | 0.00 | 0.00 | 77 | 1019.1 |
| 20260830121027 | 68 | 252 | 1.0 | 4.0 | 0.00 | 0.00 | 0.00 | 77 | 1019.1 |
| 20260830120520 | 68 | 235 | 1.0 | 3.0 | 0.00 | 0.00 | 0.00 | 80 | 1019.1 |
| 20260830120016 | 67 | 241 | 1.0 | 3.0 | 0.00 | 0.00 | 0.00 | 81 | 1019.1 |
| 20260830115509 | 67 | 226 | 0.0 | 2.0 | 0.00 | 0.00 | 0.00 | 83 | 1019.1 |
| 20260830115016 | 66 | 232 | 0.0 | 2.0 | 0.00 | 0.00 | 0.00 | 82 | 1019.1 |
| 20260830114508 | 66 | 217 | 0.0 | 1.0 | 0.00 | 0.00 | 0.00 | 81 | 1019.2 |
| 20260830114026 | 66 | 217 | 0.0 | 1.0 | 0.00 | 0.00 | 0.00 | 81 | 1019.2 |
| 20260830113509 | 66 | 214 | 0.0 | 1.0 | 0.00 | 0.00 | 0.00 | 81 | 1019.4 |
| 20260830113016 | 65 | 214 | 0.0 | 1.0 | 0.00 | 0.00 | 0.00 | 84 | 1019.4 |
| 20260830112508 | 65 | 214 | 0.0 | 1.0 | 0.00 | 0.00 | 0.00 | 84 | 1019.5 |
| 20260830112016 | 65 | 214 | 0.0 | 1.0 | 0.00 | 0.00 | 0.00 | 82 | 1019.5 |
| 20260830111531 | 65 | 213 | 0.0 | 1.0 | 0.00 | 0.00 | 0.00 | 83 | 1019.5 |
| 20260830111010 | 65 | 217 | 0.0 | 2.0 | 0.00 | 0.00 | 0.00 | 84 | 1019.4 |
| 20260830110527 | 64 | 219 | 0.0 | 1.0 | 0.00 | 0.00 | 0.00 | 83 | 1019.4 |
| 20260830110009 | 64 | 228 | 0.0 | 2.0 | 0.00 | 0.00 | 0.00 | 84 | 1019.5 |
| 20260830105527 | 63 | 228 | 0.0 | 2.0 | 0.00 | 0.00 | 0.00 | 86 | 1019.5 |
| 20260830105009 | 62 | 288 | 0.0 | 0.0 | 0.00 | 0.00 | 0.00 | 86 | 1019.6 |
| 20260830104517 | 62 | 288 | 0.0 | 0.0 | 0.00 | 0.00 | 0.00 | 88 | 1019.7 |
| 20260830104009 | 61 | 288 | 0.0 | 0.0 | 0.00 | 0.00 | 0.00 | 90 | 1019.7 |
| 20260830103527 | 61 | 288 | 0.0 | 0.0 | 0.00 | 0.00 | 0.00 | 91 | 1019.8 |
| 20260830103020 | 59 | 289 | 0.0 | 1.0 | 0.00 | 0.00 | 0.00 | 91 | 1019.7 |
| 20260830102517 | 58 | 289 | 0.0 | 1.0 | 0.00 | 0.00 | 0.00 | 91 | 1019.7 |
| 20260830102009 | 57 | 289 | 0.0 | 0.0 | 0.00 | 0.00 | 0.00 | 92 | 1019.8 |
| 20260830101516 | 56 | 288 | 0.0 | 1.0 | 0.00 | 0.00 | 0.00 | 92 | 1019.9 |
| 20260830101010 | 56 | 288 | 0.0 | 1.0 | 0.00 | 0.00 | 0.00 | 92 | 1019.8 |
| 20260830100516 | 55 | 289 | 0.0 | 1.0 | 0.00 | 0.00 | 0.00 | 93 | 1020.0 |
| 20260830100008 | 54 | 289 | 0.0 | 1.0 | 0.00 | 0.00 | 0.00 | 94 | 1019.8 |
| 20260830095516 | 54 | 288 | 0.0 | 1.0 | 0.00 | 0.00 | 0.00 | 95 | 1019.7 |
| 20260830095010 | 53 | 288 | 0.0 | 1.0 | 0.00 | 0.00 | 0.00 | 95 | 1019.8 |
| 20260830094527 | 53 | 288 | 0.0 | 1.0 | 0.00 | 0.00 | 0.00 | 94 | 1019.8 |
| 20260830094008 | 53 | 288 | 0.0 | 1.0 | 0.00 | 0.00 | 0.00 | 94 | 1019.6 |
| 20260830093516 | 53 | 288 | 0.0 | 0.0 | 0.00 | 0.00 | 0.00 | 94 | 1019.7 |
| 20260830093008 | 53 | 288 | 0.0 | 1.0 | 0.00 | 0.00 | 0.00 | 95 | 1019.8 |
| 20260830092516 | 52 | 288 | 0.0 | 1.0 | 0.00 | 0.00 | 0.00 | 94 | 1019.7 |
| 20260830092008 | 52 | 288 | 0.0 | 1.0 | 0.00 | 0.00 | 0.00 | 95 | 1019.7 |
| 20260830091517 | 52 | 288 | 0.0 | 0.0 | 0.00 | 0.00 | 0.00 | 94 | 1019.8 |
| 20260830091009 | 52 | 288 | 0.0 | 0.0 | 0.00 | 0.00 | 0.00 | 94 | 1019.8 |
| 20260830090517 | 52 | 288 | 0.0 | 0.0 | 0.00 | 0.00 | 0.00 | 94 | 1019.7 |
| 20260830090009 | 51 | 288 | 0.0 | 0.0 | 0.00 | 0.00 | 0.00 | 94 | 1019.6 |
| 20260830085516 | 51 | 288 | 0.0 | 0.0 | 0.00 | 0.07 | 0.00 | 94 | 1019.7 |
| 20260830085009 | 51 | 288 | 0.0 | 0.0 | 0.00 | 0.07 | 0.00 | 94 | 1019.7 |
| 20260830084516 | 51 | 288 | 0.0 | 0.0 | 0.00 | 0.07 | 0.00 | 93 | 1019.6 |
| 20260830084020 | 51 | 288 | 0.0 | 0.0 | 0.00 | 0.07 | 0.00 | 93 | 1019.6 |
| 20260830083516 | 51 | 288 | 0.0 | 0.0 | 0.00 | 0.07 | 0.00 | 93 | 1019.6 |
| 20260830083010 | 51 | 288 | 0.0 | 1.0 | 0.00 | 0.07 | 0.00 | 93 | 1019.8 |
| 20260830082517 | 51 | 288 | 0.0 | 1.0 | 0.00 | 0.07 | 0.00 | 93 | 1019.7 |
| 20260830082009 | 52 | 288 | 0.0 | 1.0 | 0.00 | 0.07 | 0.00 | 94 | 1019.7 |
| 20260830081516 | 52 | 288 | 0.0 | 1.0 | 0.00 | 0.07 | 0.00 | 94 | 1019.6 |
| 20260830081020 | 51 | 288 | 0.0 | 1.0 | 0.00 | 0.07 | 0.00 | 94 | 1019.6 |
| 20260830080516 | 51 | 288 | 0.0 | 0.0 | 0.00 | 0.07 | 0.00 | 93 | 1019.5 |
| 20260830080009 | 51 | 288 | 0.0 | 1.0 | 0.00 | 0.07 | 0.00 | 93 | 1019.5 |
| 20260830075517 | 51 | 288 | 0.0 | 1.0 | 0.00 | 0.18 | 0.00 | 93 | 1019.5 |
| 20260830075009 | 51 | 288 | 0.0 | 0.0 | 0.00 | 0.18 | 0.00 | 93 | 1019.5 |
| 20260830074516 | 51 | 288 | 0.0 | 0.0 | 0.00 | 0.18 | 0.00 | 92 | 1019.6 |
| 20260830074009 | 51 | 288 | 0.0 | 0.0 | 0.00 | 0.18 | 0.00 | 92 | 1019.6 |
| 20260830073517 | 52 | 288 | 0.0 | 0.0 | 0.00 | 0.18 | 0.00 | 93 | 1019.5 |
| 20260830073020 | 52 | 288 | 0.0 | 0.0 | 0.00 | 0.18 | 0.00 | 92 | 1019.5 |
| 20260830072517 | 52 | 288 | 0.0 | 0.0 | 0.00 | 0.18 | 0.00 | 92 | 1019.4 |
| 20260830072009 | 52 | 288 | 0.0 | 0.0 | 0.00 | 0.18 | 0.00 | 92 | 1019.3 |
| 20260830071517 | 53 | 288 | 0.0 | 0.0 | 0.00 | 0.18 | 0.00 | 92 | 1019.3 |
| 20260830071014 | 52 | 288 | 0.0 | 0.0 | 0.00 | 0.18 | 0.00 | 92 | 1019.5 |
| 20260830070516 | 53 | 288 | 0.0 | 0.0 | 0.00 | 0.18 | 0.00 | 91 | 1019.6 |
| 20260830070011 | 53 | 288 | 0.0 | 0.0 | 0.00 | 0.18 | 0.00 | 91 | 1019.6 |
| 20260830065516 | 53 | 288 | 0.0 | 0.0 | 0.00 | 0.28 | 0.00 | 92 | 1019.7 |
| 20260830065009 | 53 | 288 | 0.0 | 1.0 | 0.00 | 0.28 | 0.00 | 92 | 1019.6 |
| 20260830064516 | 54 | 288 | 0.0 | 1.0 | 0.00 | 0.28 | 0.00 | 92 | 1019.6 |
| 20260830064014 | 54 | 288 | 1.0 | 1.0 | 0.00 | 0.28 | 0.00 | 93 | 1019.6 |
| 20260830063527 | 53 | 286 | 0.0 | 1.0 | 0.00 | 0.28 | 0.00 | 93 | 1019.6 |
| 20260830063009 | 52 | 267 | 0.0 | 0.0 | 0.00 | 0.28 | 0.00 | 92 | 1019.6 |
| 20260830062517 | 52 | 267 | 0.0 | 0.0 | 0.00 | 0.28 | 0.00 | 91 | 1019.7 |
| 20260830062020 | 52 | 267 | 0.0 | 0.0 | 0.00 | 0.28 | 0.00 | 91 | 1019.6 |
| 20260830061528 | 52 | 267 | 0.0 | 0.0 | 0.00 | 0.28 | 0.00 | 90 | 1019.8 |
| 20260830061009 | 52 | 267 | 0.0 | 0.0 | 0.00 | 0.28 | 0.00 | 90 | 1019.9 |
| 20260830060516 | 52 | 267 | 0.0 | 0.0 | 0.00 | 0.28 | 0.00 | 90 | 1019.8 |
| 20260830060010 | 52 | 267 | 0.0 | 0.0 | 0.00 | 0.28 | 0.00 | 89 | 1019.8 |
| 20260830055516 | 53 | 267 | 0.0 | 1.0 | 0.00 | 0.29 | 0.00 | 89 | 1019.7 |
| 20260830055010 | 53 | 267 | 0.0 | 1.0 | 0.00 | 0.29 | 0.00 | 89 | 1019.8 |
| 20260830054516 | 53 | 274 | 0.0 | 1.0 | 0.00 | 0.29 | 0.00 | 88 | 1019.9 |
| 20260830054009 | 53 | 274 | 0.0 | 1.0 | 0.00 | 0.29 | 0.00 | 88 | 1020.1 |
| 20260830053517 | 54 | 274 | 0.0 | 1.0 | 0.00 | 0.29 | 0.00 | 87 | 1020.0 |
| 20260830053009 | 55 | 274 | 0.0 | 1.0 | 0.00 | 0.29 | 0.00 | 86 | 1020.0 |
| 20260830052517 | 55 | 277 | 0.0 | 2.0 | 0.00 | 0.29 | 0.00 | 86 | 1020.1 |
| 20260830052009 | 55 | 277 | 0.0 | 2.0 | 0.00 | 0.29 | 0.00 | 86 | 1020.0 |
| 20260830051517 | 55 | 304 | 1.0 | 2.0 | 0.00 | 0.29 | 0.00 | 86 | 1020.0 |
| 20260830051009 | 56 | 297 | 1.0 | 4.0 | 0.00 | 0.29 | 0.00 | 86 | 1020.1 |
| 20260830050527 | 56 | 278 | 1.0 | 4.0 | 0.00 | 0.29 | 0.00 | 86 | 1020.1 |
| 20260830050010 | 55 | 302 | 2.0 | 3.0 | 0.00 | 0.29 | 0.00 | 87 | 1020.1 |
| 20260830045516 | 55 | 290 | 0.0 | 3.0 | 0.00 | 0.29 | 0.00 | 86 | 1020.2 |
| 20260830045009 | 55 | 308 | 1.0 | 3.0 | 0.00 | 0.29 | 0.00 | 87 | 1020.3 |
| 20260830044517 | 55 | 310 | 0.0 | 1.0 | 0.00 | 0.29 | 0.00 | 87 | 1020.3 |
| 20260830044009 | 55 | 289 | 0.0 | 0.0 | 0.00 | 0.29 | 0.00 | 87 | 1020.4 |
| 20260830043517 | 55 | 289 | 0.0 | 0.0 | 0.00 | 0.29 | 0.00 | 86 | 1020.2 |
| 20260830043009 | 55 | 289 | 0.0 | 1.0 | 0.00 | 0.29 | 0.00 | 86 | 1020.3 |
| 20260830042521 | 55 | 289 | 0.0 | 1.0 | 0.00 | 0.29 | 0.00 | 86 | 1020.2 |
| 20260830042010 | 55 | 289 | 0.0 | 1.0 | 0.00 | 0.29 | 0.00 | 86 | 1020.4 |
| 20260830041528 | 55 | 290 | 0.0 | 1.0 | 0.00 | 0.29 | 0.00 | 85 | 1020.2 |
| 20260830041009 | 56 | 288 | 0.0 | 1.0 | 0.00 | 0.29 | 0.00 | 85 | 1020.3 |
| 20260830040516 | 56 | 288 | 0.0 | 1.0 | 0.00 | 0.29 | 0.00 | 85 | 1020.3 |
| 20260830040009 | 56 | 289 | 0.0 | 1.0 | 0.00 | 0.29 | 0.00 | 85 | 1020.3 |
| 20260830035516 | 56 | 283 | 0.0 | 1.0 | 0.00 | 0.29 | 0.00 | 85 | 1020.3 |
| 20260830035009 | 56 | 334 | 0.0 | 0.0 | 0.00 | 0.29 | 0.00 | 85 | 1020.4 |
| 20260830034516 | 56 | 334 | 0.0 | 1.0 | 0.00 | 0.29 | 0.00 | 85 | 1020.3 |
| 20260830034009 | 56 | 338 | 0.0 | 1.0 | 0.00 | 0.29 | 0.00 | 85 | 1020.1 |
| 20260830033517 | 56 | 357 | 0.0 | 1.0 | 0.00 | 0.29 | 0.00 | 84 | 1020.2 |
| 20260830033009 | 57 | 357 | 0.0 | 1.0 | 0.00 | 0.29 | 0.00 | 84 | 1020.0 |
| 20260830032517 | 57 | 357 | 0.0 | 1.0 | 0.00 | 0.29 | 0.00 | 84 | 1020.0 |
| 20260830032009 | 57 | 357 | 0.0 | 1.0 | 0.00 | 0.29 | 0.00 | 84 | 1020.1 |
| 20260830031530 | 57 | 357 | 0.0 | 1.0 | 0.00 | 0.29 | 0.00 | 83 | 1020.0 |
| 20260830031009 | 57 | 357 | 0.0 | 1.0 | 0.00 | 0.29 | 0.00 | 82 | 1019.9 |
| 20260830030517 | 58 | 357 | 0.0 | 0.0 | 0.00 | 0.29 | 0.00 | 82 | 1019.9 |
| 20260830030014 | 58 | 357 | 0.0 | 0.0 | 0.00 | 0.29 | 0.00 | 82 | 1019.9 |
| 20260830025517 | 58 | 357 | 0.0 | 0.0 | 0.00 | 0.29 | 0.29 | 81 | 1019.9 |
| 20260830025009 | 58 | 357 | 0.0 | 2.0 | 0.00 | 0.29 | 0.29 | 81 | 1019.8 |